FW5361 Weather Reports


time (UTC)temp
F
wind
direction
speed
knots
gust
knots
rain 1hr
in
rain 24hr
in
rain mn
in
humidity
%
barometer
mb
20260510142543 54 0 0.0 1.7 0.00 0.00 0.00 74 1014.3
20260510142039 54 0 0.0 1.7 0.00 0.00 0.00 75 1014.3
20260510141552 53 244 0.0 3.5 0.00 0.00 0.00 76 1014.1
20260510141040 53 0 0.9 3.5 0.00 0.00 0.00 74 1014.1
20260510140539 53 0 0.0 2.6 0.00 0.00 0.00 76 1014.0
20260510140053 53 221 0.0 2.6 0.00 0.00 0.00 76 1013.9
20260510135539 53 0 0.9 2.6 0.00 0.01 0.00 76 1013.9
20260510135042 52 0 0.0 1.7 0.00 0.01 0.00 78 1014.0
20260510134547 52 0 0.0 2.6 0.00 0.01 0.00 80 1013.9
20260510134039 52 0 0.0 2.6 0.00 0.01 0.00 79 1013.9
20260510133544 52 0 0.0 2.6 0.00 0.01 0.00 79 1013.7
20260510133053 52 0 0.0 0.0 0.00 0.01 0.00 81 1013.7
20260510132541 52 0 0.0 1.7 0.00 0.01 0.00 80 1013.7
20260510132039 52 0 0.0 1.7 0.00 0.01 0.00 79 1013.7
20260510131546 52 0 0.0 1.7 0.00 0.01 0.00 79 1013.6
20260510131041 52 0 0.0 1.7 0.00 0.01 0.00 80 1013.6
20260510130541 52 0 0.0 1.7 0.00 0.01 0.00 80 1013.4
20260510130051 52 0 0.0 1.7 0.00 0.01 0.00 80 1013.4
20260510125541 52 0 0.0 5.2 0.00 0.01 0.00 83 1013.5
20260510125039 52 0 0.0 5.2 0.00 0.01 0.00 82 1013.4
20260510124555 52 0 0.0 2.6 0.00 0.01 0.00 83 1013.4
20260510124039 52 0 0.0 2.6 0.00 0.01 0.00 83 1013.4
20260510123540 53 0 0.0 0.9 0.00 0.01 0.00 83 1013.2
20260510123053 53 0 0.0 0.9 0.00 0.01 0.00 83 1013.1
20260510122538 53 0 0.0 1.7 0.00 0.01 0.00 84 1013.0
20260510122042 53 0 0.0 1.7 0.00 0.01 0.00 83 1013.1
20260510121551 53 0 0.0 0.9 0.00 0.01 0.00 85 1013.0
20260510121042 52 201 0.0 0.0 0.00 0.01 0.00 84 1013.0
20260510120541 52 0 0.0 1.7 0.00 0.01 0.00 86 1012.8
20260510120052 52 0 0.0 1.7 0.00 0.01 0.00 86 1012.5
20260510115541 52 0 0.0 0.9 0.00 0.01 0.00 87 1012.4
20260510115039 52 0 0.0 0.9 0.00 0.01 0.00 88 1012.5
20260510114557 53 0 0.0 0.9 0.00 0.01 0.00 88 1012.3
20260510114039 53 0 0.0 1.7 0.00 0.01 0.00 88 1012.2
20260510113539 53 0 0.0 1.7 0.00 0.01 0.00 88 1012.4
20260510113048 53 0 0.0 1.7 0.00 0.01 0.00 89 1012.2
20260510112541 53 0 0.0 3.5 0.00 0.01 0.00 88 1011.9
20260510112045 53 0 0.9 4.3 0.00 0.01 0.00 88 1011.7
20260510111552 53 0 0.0 4.3 0.00 0.01 0.00 88 1011.6
20260510111038 53 174 0.0 2.6 0.00 0.01 0.00 88 1011.5
20260510110539 53 142 0.0 2.6 0.00 0.01 0.00 89 1011.3
20260510110050 53 0 0.0 2.6 0.00 0.01 0.00 88 1011.2
20260510105543 53 0 0.0 3.5 0.00 0.02 0.00 88 1011.1
20260510105042 53 0 0.0 3.5 0.00 0.02 0.00 88 1011.0
20260510104551 53 0 0.0 1.7 0.00 0.02 0.00 88 1011.1
20260510104042 53 0 0.0 1.7 0.00 0.02 0.00 88 1010.9
20260510103539 53 0 0.0 0.9 0.00 0.02 0.00 88 1010.9
20260510103055 53 0 0.0 0.0 0.00 0.02 0.00 88 1010.6
20260510102539 53 0 0.0 0.0 0.00 0.02 0.00 87 1010.5
20260510102041 53 0 0.0 0.0 0.00 0.02 0.00 87 1010.6
20260510101557 53 0 0.0 0.0 0.00 0.02 0.00 87 1010.5
20260510101039 53 0 0.0 2.6 0.00 0.02 0.00 87 1010.4
20260510100542 53 0 0.0 2.6 0.00 0.02 0.00 86 1010.2
20260510100115 54 203 0.0 2.6 0.00 0.02 0.00 86 1010.1
20260510095540 54 0 0.9 5.2 0.00 0.04 0.00 86 1010.2
20260510095040 54 0 0.9 5.2 0.00 0.04 0.00 85 1010.1
20260510094555 54 0 0.0 5.2 0.00 0.04 0.00 85 1009.9
20260510094039 54 146 1.7 5.2 0.00 0.04 0.00 84 1009.9
20260510093539 54 0 0.9 4.3 0.00 0.04 0.00 84 1009.7
20260510093053 55 158 0.0 4.3 0.00 0.04 0.00 84 1009.7
20260510092541 55 128 0.0 4.3 0.00 0.04 0.00 83 1009.5
20260510092040 55 134 0.0 3.5 0.00 0.04 0.00 82 1009.3
20260510091547 55 0 0.0 3.5 0.00 0.04 0.00 82 1009.2
20260510091039 56 0 0.0 7.0 0.00 0.04 0.00 81 1009.1
20260510090538 56 0 1.7 7.0 0.00 0.04 0.00 80 1009.0
20260510090046 56 213 1.7 5.2 0.00 0.04 0.00 81 1009.0
20260510085538 56 0 0.0 3.5 0.00 0.12 0.00 81 1008.9
20260510085039 57 150 0.0 4.3 0.00 0.12 0.00 81 1008.9
20260510084552 57 0 0.9 6.1 0.00 0.12 0.00 80 1008.8
20260510084039 57 122 0.9 6.1 0.00 0.12 0.00 80 1008.8
20260510083539 58 159 0.9 5.2 0.00 0.12 0.00 80 1008.5
20260510083100 58 175 0.9 4.3 0.00 0.12 0.00 79 1008.3
20260510082538 58 172 0.9 4.3 0.00 0.12 0.00 79 1008.4
20260510082039 58 172 0.9 6.1 0.00 0.12 0.00 79 1008.3
20260510081551 58 154 1.7 6.1 0.00 0.12 0.00 79 1008.4
20260510081040 57 145 1.7 3.5 0.00 0.12 0.00 80 1008.3
20260510080543 57 138 0.9 3.5 0.00 0.12 0.00 84 1008.1
20260510080051 56 141 0.0 1.7 0.00 0.12 0.00 86 1008.1
20260510075541 56 0 0.0 1.7 0.00 0.13 0.00 86 1008.2
20260510075039 55 0 0.0 0.9 0.00 0.13 0.00 88 1008.1
20260510074549 55 0 0.0 0.9 0.00 0.13 0.00 87 1008.1
20260510074040 55 0 0.0 0.0 0.00 0.13 0.00 88 1008.1
20260510073541 55 0 0.0 0.0 0.00 0.13 0.00 87 1008.1
20260510073052 55 0 0.0 4.3 0.00 0.13 0.00 87 1008.1
20260510072539 56 0 0.0 4.3 0.00 0.13 0.00 87 1008.2
20260510072039 56 0 0.9 4.3 0.00 0.13 0.00 87 1008.3
20260510071557 56 0 0.0 0.0 0.00 0.13 0.00 86 1008.3
20260510071042 56 0 0.0 0.0 0.00 0.13 0.00 86 1008.4
20260510070542 56 0 0.0 0.0 0.00 0.13 0.00 86 1008.4
20260510070052 56 0 0.0 0.0 0.00 0.13 0.00 85 1008.2
20260510065543 56 0 0.0 0.0 0.00 0.13 0.00 85 1008.2
20260510065042 56 0 0.0 0.0 0.00 0.13 0.00 84 1008.3
20260510064547 56 0 0.0 0.0 0.00 0.13 0.00 83 1008.4
20260510064039 56 0 0.0 1.7 0.00 0.13 0.00 83 1008.4
20260510063541 56 0 0.0 1.7 0.00 0.13 0.00 83 1008.4
20260510063051 56 0 0.0 0.0 0.00 0.13 0.00 83 1008.3
20260510062539 56 0 0.0 0.0 0.00 0.13 0.00 82 1008.2
20260510062039 56 0 0.0 0.0 0.00 0.13 0.00 82 1008.2
20260510061553 56 0 0.0 0.0 0.00 0.13 0.00 81 1008.2
20260510061039 56 0 0.0 0.0 0.00 0.13 0.00 80 1008.2
20260510060541 57 0 0.0 0.0 0.00 0.13 0.00 80 1008.2
20260510060051 57 0 0.0 0.0 0.00 0.13 0.00 79 1008.2
20260510055539 58 0 0.0 0.0 0.00 0.13 0.00 77 1008.3
20260510055041 58 0 0.0 0.0 0.00 0.13 0.00 76 1008.4
20260510054552 59 0 0.0 0.0 0.00 0.13 0.00 77 1008.4
20260510054039 60 0 0.0 2.6 0.00 0.13 0.00 75 1008.3
20260510053538 60 0 0.0 2.6 0.00 0.13 0.00 72 1008.5
20260510053050 61 0 0.0 2.6 0.00 0.13 0.00 75 1008.5
20260510052538 61 0 0.0 7.0 0.00 0.13 0.00 71 1008.4
20260510052038 61 150 0.0 7.0 0.00 0.13 0.00 72 1008.5
20260510051546 60 146 2.6 7.0 0.00 0.13 0.00 74 1008.7
20260510051040 60 173 0.9 2.6 0.00 0.13 0.00 74 1008.4
20260510050542 60 0 0.0 1.7 0.00 0.13 0.00 76 1008.0
20260510050050 60 0 0.0 1.7 0.00 0.13 0.00 73 1008.0
20260510045539 60 0 0.0 1.7 0.00 0.13 0.00 75 1007.9
20260510045039 60 132 0.0 2.6 0.00 0.13 0.00 75 1007.9
20260510044548 60 0 0.0 2.6 0.00 0.13 0.00 75 1008.0
20260510044042 59 0 0.0 1.7 0.00 0.13 0.00 77 1007.7
20260510043539 59 0 0.0 0.9 0.00 0.13 0.00 76 1007.7
20260510043055 59 0 0.0 0.9 0.00 0.13 0.00 77 1007.7
20260510042539 58 0 0.0 1.7 0.00 0.13 0.00 77 1007.7
20260510042039 58 0 0.0 1.7 0.00 0.13 0.00 77 1007.7
20260510041550 58 0 0.0 1.7 0.00 0.13 0.00 77 1007.6
20260510041041 59 0 0.0 1.7 0.00 0.13 0.00 77 1007.6
20260510040541 58 0 0.0 0.0 0.00 0.13 0.00 77 1007.5
20260510040058 58 0 0.0 0.0 0.00 0.13 0.00 78 1007.4
20260510035540 59 0 0.0 1.7 0.00 0.13 0.13 78 1007.6
20260510035040 59 0 0.0 1.7 0.00 0.13 0.13 77 1007.4
20260510034550 59 41 0.0 1.7 0.00 0.13 0.13 75 1007.5
20260510034040 59 0 0.0 0.9 0.00 0.13 0.13 80 1007.5
20260510033538 59 210 0.0 1.7 0.00 0.13 0.13 78 1007.4
20260510033110 59 0 0.0 1.7 0.00 0.13 0.13 79 1007.3
20260510032539 59 0 0.0 1.7 0.00 0.13 0.13 79 1007.4
20260510032043 59 0 0.0 1.7 0.00 0.13 0.13 78 1007.3
20260510031558 59 0 0.0 1.7 0.00 0.13 0.13 76 1007.3
20260510031041 59 0 0.0 0.9 0.00 0.13 0.13 77 1007.1
20260510030539 59 0 0.0 0.9 0.00 0.13 0.13 76 1007.3
20260510030051 60 0 0.0 0.9 0.00 0.13 0.13 76 1007.3
20260510025538 60 325 0.0 1.7 0.00 0.13 0.13 77 1007.2
20260510025039 60 0 0.0 1.7 0.00 0.13 0.13 75 1007.3
20260510024558 60 0 0.0 1.7 0.00 0.13 0.13 73 1007.3
20260510024038 60 0 0.0 0.0 0.00 0.13 0.13 72 1007.3
20260510023539 61 0 0.0 0.0 0.00 0.13 0.13 72 1007.3
20260510023052 61 0 0.0 0.0 0.00 0.13 0.13 70 1007.2
20260510022539 61 0 0.0 0.0 0.00 0.13 0.13 71 1007.2
20260510022039 61 0 0.0 0.0 0.00 0.13 0.13 71 1007.2
20260510021552 61 0 0.0 0.0 0.00 0.13 0.13 69 1007.1
20260510021039 61 0 0.0 0.0 0.00 0.13 0.13 68 1007.1
20260510020539 61 0 0.0 1.7 0.00 0.13 0.13 68 1007.1
20260510020052 62 0 0.0 1.7 0.00 0.13 0.13 68 1006.9
20260510015541 62 162 0.0 1.7 0.00 0.13 0.13 68 1006.9
20260510015041 63 0 0.0 1.7 0.00 0.13 0.13 65 1006.8
20260510014552 63 0 0.0 3.5 0.00 0.13 0.13 67 1006.7
20260510014041 63 151 0.9 3.5 0.00 0.13 0.13 64 1006.4
20260510013541 63 154 0.0 3.5 0.00 0.13 0.13 65 1006.2
20260510013053 63 0 0.0 3.5 0.00 0.13 0.13 66 1006.1
20260510012538 63 166 0.0 3.5 0.00 0.13 0.13 65 1006.1
20260510012038 64 0 0.9 4.3 0.00 0.13 0.13 63 1006.0
20260510011555 63 147 0.9 4.3 0.00 0.13 0.13 66 1005.9
20260510011039 63 5 0.0 4.3 0.00 0.13 0.13 69 1005.7
20260510010539 63 0 0.0 4.3 0.00 0.13 0.13 66 1005.5
20260510010055 63 0 0.0 4.3 0.00 0.13 0.13 65 1005.5
20260510005539 63 352 0.0 2.6 0.00 0.13 0.13 68 1005.4
20260510005039 63 0 0.0 2.6 0.00 0.13 0.13 65 1005.4
20260510004552 63 42 0.0 1.7 0.00 0.13 0.13 67 1005.6
20260510004040 63 0 0.0 4.3 0.00 0.13 0.13 64 1005.7
20260510003539 64 0 0.0 4.3 0.00 0.13 0.13 66 1005.7
20260510003104 64 0 0.0 3.5 0.00 0.13 0.13 61 1005.4
20260510002539 64 42 0.0 3.5 0.00 0.13 0.13 61 1005.4
20260510002040 65 0 0.0 3.5 0.00 0.13 0.13 64 1005.4
20260510001553 66 36 0.0 6.1 0.00 0.13 0.13 58 1005.3
20260510001040 66 315 0.0 6.1 0.00 0.13 0.13 58 1005.3
20260510000540 66 31 0.9 6.1 0.00 0.13 0.13 59 1005.3
20260510000050 67 160 0.9 8.7 0.00 0.13 0.13 58 1005.4
20260509235539 67 30 0.9 8.7 0.00 0.13 0.13 55 1005.4
20260509235039 67 132 0.9 5.2 0.00 0.13 0.13 54 1005.4
20260509234600 68 0 0.9 5.2 0.00 0.13 0.13 54 1005.4
20260509234039 68 110 0.0 5.2 0.00 0.13 0.13 54 1005.2
20260509233540 68 0 0.9 7.8 0.00 0.13 0.13 54 1005.3
20260509233050 68 228 2.6 7.8 0.00 0.13 0.13 53 1005.1
20260509232539 69 0 0.9 7.0 0.00 0.13 0.13 53 1005.1
20260509232039 69 0 0.9 7.0 0.00 0.13 0.13 53 1005.1
20260509231553 69 9 1.7 7.0 0.00 0.13 0.13 53 1004.9
20260509231038 69 5 0.9 7.0 0.00 0.13 0.13 55 1004.8
20260509230539 69 64 0.9 7.8 0.00 0.13 0.13 53 1004.9
20260509230059 69 171 0.9 9.6 0.00 0.13 0.13 54 1004.8
20260509225539 69 159 2.6 9.6 0.00 0.13 0.13 53 1004.9
20260509225039 69 26 2.6 12.2 0.00 0.13 0.13 53 1004.8
20260509224554 69 105 2.6 12.2 0.00 0.13 0.13 54 1005.0
20260509224039 69 31 2.6 12.2 0.00 0.13 0.13 53 1004.9
20260509223540 69 11 2.6 9.6 0.00 0.13 0.13 53 1004.9
20260509223051 69 49 3.5 9.6 0.00 0.13 0.13 54 1005.0
20260509222539 69 348 1.7 10.4 0.00 0.13 0.13 55 1005.1
20260509222039 69 351 2.6 10.4 0.00 0.13 0.13 53 1005.0
20260509221551 69 255 2.6 11.3 0.00 0.13 0.13 54 1004.9
20260509221039 69 82 2.6 11.3 0.00 0.13 0.13 52 1004.9
20260509220539 69 178 3.5 11.3 0.00 0.13 0.13 52 1005.0
20260509220051 69 32 3.5 9.6 0.00 0.13 0.13 53 1005.1
20260509215541 69 22 1.7 10.4 0.00 0.13 0.13 54 1005.1
20260509215038 69 163 2.6 11.3 0.00 0.13 0.13 54 1005.3
20260509214553 69 54 2.6 11.3 0.00 0.13 0.13 56 1005.2
20260509214041 69 168 2.6 11.3 0.00 0.13 0.13 53 1005.1
20260509213541 69 67 2.6 11.3 0.00 0.13 0.13 53 1005.2
20260509213058 69 157 3.5 11.3 0.00 0.13 0.13 56 1005.3
20260509212539 69 160 4.3 11.3 0.00 0.13 0.13 56 1005.2
20260509212040 69 93 2.6 9.6 0.00 0.13 0.13 55 1005.2
20260509211601 69 150 2.6 9.6 0.00 0.13 0.13 57 1005.2
20260509211040 69 192 2.6 9.6 0.00 0.13 0.13 56 1005.2
20260509210540 68 81 1.7 9.6 0.00 0.13 0.13 55 1005.1
20260509210055 68 78 2.6 12.2 0.00 0.13 0.13 57 1005.2
20260509205540 68 43 1.7 12.2 0.00 0.13 0.13 57 1005.3
20260509205118 68 32 2.6 15.6 0.00 0.13 0.13 56 1005.4
20260509204552 68 88 2.6 15.6 0.00 0.13 0.13 58 1005.4
20260509204040 68 49 1.7 10.4 0.00 0.13 0.13 56 1005.7
20260509203539 68 157 4.3 10.4 0.00 0.13 0.13 57 1005.7
20260509203052 68 49 1.7 10.4 0.00 0.13 0.13 56 1005.7
20260509202539 68 34 1.7 10.4 0.00 0.13 0.13 55 1005.6
20260509202039 68 113 2.6 10.4 0.00 0.13 0.13 55 1005.7
20260509201554 68 343 3.5 11.3 0.00 0.13 0.13 58 1005.7
20260509201039 67 154 2.6 11.3 0.00 0.13 0.13 58 1005.8
20260509200538 67 74 3.5 11.3 0.00 0.13 0.13 57 1005.8
20260509195539 67 47 2.6 12.2 0.00 0.13 0.13 59 1006.0
20260509195040 67 0 2.6 12.2 0.00 0.13 0.13 59 1006.0
20260509194549 68 313 3.5 9.6 0.00 0.13 0.13 59 1006.1
20260509194039 68 215 0.9 9.6 0.00 0.13 0.13 58 1006.0
20260509193539 67 66 2.6 10.4 0.00 0.13 0.13 57 1006.2
20260509193056 66 232 2.6 10.4 0.00 0.13 0.13 58 1006.2
20260509192539 66 57 2.6 8.7 0.00 0.13 0.13 58 1006.3
20260509192039 67 252 1.7 12.2 0.00 0.13 0.13 59 1006.3
20260509191550 67 137 1.7 13.9 0.00 0.13 0.13 59 1006.2
20260509191042 66 35 2.6 13.9 0.00 0.13 0.13 59 1006.3
20260509190539 66 67 3.5 12.2 0.00 0.13 0.13 59 1006.2
20260509190048 66 222 4.3 12.2 0.00 0.13 0.13 60 1006.4
20260509185539 67 47 4.3 12.2 0.00 0.13 0.13 60 1006.5
20260509185038 67 202 1.7 11.3 0.00 0.13 0.13 61 1006.5
20260509184552 66 13 2.6 11.3 0.00 0.13 0.13 62 1006.4
20260509184039 66 333 3.5 11.3 0.00 0.13 0.13 64 1006.5
20260509183545 65 352 1.7 10.4 0.00 0.13 0.13 66 1006.6
20260509183134 65 340 1.7 9.6 0.00 0.13 0.13 66 1006.5
20260509182540 65 285 3.5 9.6 0.00 0.13 0.13 66 1006.6
20260509182043 64 160 2.6 11.3 0.00 0.13 0.13 67 1006.7
20260509181608 65 207 2.6 11.3 0.00 0.13 0.13 66 1006.7
20260509181041 64 56 0.9 7.8 0.00 0.13 0.13 68 1006.9
20260509180541 64 360 2.6 12.2 0.00 0.13 0.13 66 1006.9
20260509180053 64 0 0.9 12.2 0.00 0.13 0.13 70 1006.9
20260509175539 64 339 3.5 12.2 0.00 0.13 0.13 67 1007.0
20260509175041 64 27 2.6 10.4 0.00 0.13 0.13 69 1007.1
20260509174555 64 156 3.5 7.8 0.00 0.13 0.13 68 1007.1
20260509174042 63 118 0.9 11.3 0.00 0.13 0.13 72 1007.3
20260509173541 63 173 3.5 11.3 0.00 0.13 0.13 70 1007.1
20260509173051 62 254 1.7 9.6 0.00 0.13 0.13 70 1007.1
20260509172542 63 0 1.7 8.7 0.00 0.13 0.13 70 1007.1
20260509172042 63 141 1.7 7.8 0.00 0.13 0.13 74 1007.1
20260509171552 63 77 3.5 7.8 0.00 0.13 0.13 74 1007.1
20260509171043 62 69 0.9 9.6 0.00 0.13 0.13 75 1007.2
20260509170545 61 53 2.6 9.6 0.00 0.13 0.13 75 1007.2
20260509170056 62 336 3.5 11.3 0.00 0.13 0.13 73 1007.2
20260509165541 62 50 3.5 11.3 0.00 0.13 0.13 74 1007.2
20260509165042 62 313 1.7 9.6 0.00 0.13 0.13 75 1007.1
20260509164602 61 17 2.6 9.6 0.00 0.13 0.13 77 1007.2
20260509164042 60 281 2.6 9.6 0.00 0.13 0.13 77 1007.1
20260509163542 60 59 1.7 8.7 0.00 0.13 0.13 80 1007.2
20260509163059 60 109 1.7 8.7 0.00 0.13 0.13 79 1007.2
20260509162543 60 192 1.7 10.4 0.00 0.13 0.13 81 1007.3
20260509162042 59 184 0.9 10.4 0.00 0.13 0.13 82 1007.3
20260509161552 59 72 1.7 9.6 0.00 0.13 0.13 81 1007.3
20260509161045 58 0 0.9 9.6 0.00 0.13 0.13 84 1007.3
20260509160542 58 28 2.6 8.7 0.00 0.13 0.13 83 1007.3
20260509160057 58 178 1.7 7.0 0.00 0.13 0.13 85 1007.2
20260509155540 57 0 0.0 7.8 0.00 0.13 0.13 87 1007.1
20260509155040 56 294 1.7 7.8 0.00 0.13 0.13 86 1007.2
20260509154556 56 64 0.9 7.0 0.00 0.13 0.13 87 1007.2
20260509154039 56 0 1.7 7.8 0.00 0.13 0.13 87 1007.1
20260509153539 56 40 1.7 7.8 0.00 0.13 0.13 87 1007.1
20260509153058 56 11 1.7 5.2 0.00 0.13 0.13 87 1006.9
20260509152540 56 360 0.9 3.5 0.00 0.13 0.13 88 1006.9
20260509152041 57 0 0.0 2.6 0.00 0.13 0.13 88 1007.0
20260509151556 56 0 0.0 4.3 0.00 0.13 0.13 88 1006.9
20260509151041 57 239 1.7 4.3 0.00 0.13 0.13 89 1007.0
20260509150542 57 88 0.9 6.1 0.00 0.13 0.13 88 1006.9
20260509150054 56 182 0.0 6.1 0.00 0.13 0.13 88 1006.9
20260509145542 56 71 0.9 6.1 0.00 0.13 0.13 88 1006.7
20260509145041 56 107 0.0 6.1 0.00 0.13 0.13 88 1006.8
20260509144549 56 17 0.9 7.0 0.00 0.13 0.13 89 1006.8
20260509144039 56 32 1.7 7.8 0.00 0.13 0.13 88 1006.7
20260509143540 56 39 2.6 7.8 0.00 0.13 0.13 88 1006.8
20260509143051 56 45 0.9 7.0 0.00 0.13 0.13 89 1006.7